Aérodrome :
LOGIN :

S'inscrire | Disclaimer

   EN    FR    IT 

 










Légende :    VFR   VFR Marginal   IFR   IFR Intensif   IFR Très Intensif
Visi : 
Plafond : 
>= 8 km
>= 3000ft
5 à 8 km
1000 à 3000 ft
1500m à 5 km
500 à 1000 ft
800 à 1500m
200 à 500 ft
< 800m
< 200 ft
Symboles :   Orages  Brouillard  Fortes neiges  Fortes précipitations  Vent > 20 kt
SIGMETs :   Divers  Orages  Givrage  Turbulence  Onde Orograph.  Cendres Volcan.







- Altitude de l'aérodrome : 80 ft
- Code IATA : LPL
- Voir les cartes d'approche


EGGP - Liverpool John Lennon

DERNIER METAR :
  • 210950Z 14005KT 100V180 CAVOK 18/10 Q1021

METARs EXPIRÉS :
  • 210920Z 14005KT 100V180 CAVOK 18/10 Q1021
  • 210850Z 13005KT 090V160 CAVOK 16/09 Q1021
  • 210820Z 13005KT 080V160 CAVOK 15/10 Q1022
  • 210750Z 13004KT 100V170 CAVOK 14/08 Q1022
  • 210720Z 14004KT 110V180 CAVOK 13/08 Q1022

TAF TAF EGGP
Valide du 21 à 06h jusqu'au 22 à 06h UTC


210459Z 2106/2206 VRB05KT CAVOK
PROB30
TEMPO 2106/2108 8000
ATIS : +44 151 907 2000 (option 5 or ext 5150)
Météo : +44 871 750 5150
Pas de NOTAMs connus pour ce terrain.



MET'MAP, la Météo Aéronautique d'un coup d'oeil ! - Copyright ORBIFLY Décembre 2007 - Disclaimer

ORBIFLY MET'MAP TEAM :

Programmation & Développement : Alexandra Zaïnal
Conception & Développement : Baudouin d'Aumeries
Co-Programmation & Développement : Marc-Olivier Méhu
Soutien technique & logistique : Manuel Goepfert

Contact : metmap@orbifly.com




SOURCES & CREDITS :

   NOAA